NOAA 16 DEB, 41164

Orbit data source: Space-Track

NOAA 16 DEB, 41164 is space debris in SSO originally from a launch on Thu, 21 Sep 2000 UTC launched from the Air Force Western Test Range (AFWTR). Debris objects in space refer to the collection of defunct objects orbiting the Earth. Examples of debris include non-operational satellites, rocket bodies, and fragments generated from explosions, collisions, or faulty payload assembly.

Loading next visibility...
Identifier
41164, 2000-055CX
Orbit
SSO
Country
Flag of USUS
Related business
Manufacturer
Unknown
Mission
Spacecraft
Bus & Motor
Unknown
Mass
Unknown
Launch date (UTC)
2000-09-21 (26 years ago)
Launch vehicle
Unknown
Launch site
Air Force Western Test Range (AFWTR)
Object type
Payload
Rocket body
Debris
Shape & HBR
Unknown shape, 0.1 m
Radar Cross Section
Small (<0.1 m²)

Expand to show TLE details & history
Last TLE update: 2 days ago

TLE from 2 days ago
0 NOAA 16 DEB
1 41164U 00055CX  26129.44676714  .00004287  00000-0  19700-2 0  9995
2 41164  98.9624 211.7725 0060044 140.1805 220.3801 14.20775109534569
Epoch: 2026-05-09T10:43Z
TLE epoch observation values (Epoch: 2026-05-09T10:43:20.680Z)
Latitude
0.00004°
Longitude
-176.32775°
Altitude
858.691 km
Speed
7.406 km/s
True Right ascension
14h 07m 05s
True Declination
0° 00' 00"
Sunlit
Object was in full shadow at epoch
Visualization orbit readout
Latitude
Unknown
Longitude
Unknown
Altitude
Unknown
Speed
Unknown
Apparent Right ascension
Unknown
Apparent Declination
Unknown
Sunlit
N/A
Visualization observer readout
Local Sidereal Time
08:06:50
Azimuth
Unknown
Elevation
Unknown
Doppler factor
Unknown
Orbital elements
Apogee altitude
863.122 km
Perigee altitude
776.682 km
Semi-major axis
7,198.039 km
Eccentricity
0.006
Inclination
98.9624°
RAAN
211.7725°
Arg. of periapsis
140.1805°
True anomaly
219.93688°
Mean anomaly
220.3801°
Eccentric anomaly
220.15824°
Mean motion
3.55404 °/min
Orbital period
101.29 mins
BSTAR
0.00197
Loading maneuver chart data...
Computing Atmospheric mass density...
Loading historical data...
Loading historical data...
Loading historical data...
Loading historical data...
Loading historical data...
Loading historical data...
Loading historical data...

Documentation

Showing up to 5 results
|